Regional Weather Roundup
Issued by NWS

Home | Current Version | Previous Version | Graphics & Text | Print | Product List | Glossary On
Versions: 1 2 3 4 5 6 7 8 9 10 11 12 13 14 15 16 17 18 19 20 21 22 23 24 25 26 27 28
000
ASUS45 KCYS 200210
RWRWY

WYOMING REGIONAL WEATHER ROUNDUP
NATIONAL WEATHER SERVICE CHEYENNE WY
700 PM MST FRI JAN 19 2018

NOTE:  "FAIR" INDICATES FEW OR NO CLOUDS BELOW 12,000 FEET
WITH NO SIGNIFICANT WEATHER AND/OR OBSTRUCTIONS TO VISIBILITY.

WYZ001-200300-
YELLOWSTONE NATIONAL PARK

CITY           SKY/WX    TMP DP  RH WIND       PRES   REMARKS
LK YELLOWSTONE   N/A     22  20  92 VRB5      29.78S WCI  16
W YELLOWSTONE  NOT AVBL

$$
WYZ002>013-054>058-071-098>099-200300-
NORTHERN WYOMING

CITY           SKY/WX    TMP DP  RH WIND       PRES   REMARKS
JACKSON        FLURRIES  29  22  75 S9        29.82S WCI  20
CODY           MIX PCPN  31  29  92 N8        29.78R WCI  23
GREYBULL       CLOUDY    36  32  85 NW17      29.75R WCI  26
WORLAND        FAIR      31  30  96 NE6       29.74R WCI  25
SHERIDAN       CLOUDY    35  34  96 NW14      29.76R WCI  26
BUFFALO        CLOUDY    36  31  82 NW10      29.74R WCI  28
GILLETTE       CLOUDY    38  31  76 NW5       29.71S WCI  34
HULETT         MIX PCPN  37  32  81 CALM      29.73R
NEWCASTLE      FAIR      30  28  93 N3        29.73R

$$
WYZ014>020-022>026-101>103-200300-
CENTRAL WYOMING

CITY           SKY/WX    TMP DP  RH WIND       PRES   REMARKS
BIG PINEY      CLOUDY    29  20  69 N15       29.82R WCI  18
PINEDALE       LGT SNOW  28  27  93 NW15      29.83R WCI  17
DUBOIS         CLOUDY    30  18  59 W17G24    29.75R WCI  18
LANDER         CLOUDY    36  27  69 CALM      29.70R
RIVERTON       CLOUDY    37  21  52 NW16      29.71R WCI  28
CASPER         CLOUDY    44  25  47 SW13      29.70R
DOUGLAS        MOCLDY    37  28  70 CALM      29.70R

$$
WYZ021-027>030-104>119-200300-
SOUTHERN WYOMING

CITY           SKY/WX    TMP DP  RH WIND       PRES   REMARKS
EVANSTON       LGT SNOW  27  26  96 N23       29.82R FOG     WCI  12
FORT BRIDGER   FLURRIES  29  29 100 NW14      29.84R WCI  18
ROCK SPRINGS   MOCLDY    36  28  73 W9        29.79R WCI  29
DIXON            N/A     41  20  44 S10       29.85S
RAWLINS        FAIR      39  22  50 W12       29.77S WCI  32
SARATOGA       FAIR      43  21  42 SW15G26   29.79S
LARAMIE        FAIR      38  18  44 S13       29.76S WCI  30
CHEYENNE       FAIR      47  18  31 W14       29.75S
TORRINGTON     FAIR      51  26  37 NW5       29.68S

$$




USA.gov is the U.S. government's official web portal to all federal, state and local government web resources and services.